User: anonymous
Location: Starry Hill Observatory
(46.8582°N, 122.3590°W)
Time: 02:05:16
(UTC-07:00)
Language:

Cosmos 1300 Rocket - Orbit

View from above orbital plane
View from above orbital plane
View from above satellite
View from above satellite

Ground track
Ground track

The orbit data is extracted from the following two-line orbital elements,

1 12786U 81082B   14237.54032096  .00000358  00000-0  39925-4 0  9616
2 12786 082.4886 215.0573 0018563 047.8175 091.3827 14.84150165782507
Epoch (UTC): 25 August 2014 12:58:03
Eccentricity: 0.0018563
inclination: 82.4886°
perigee height: 603 km
apogee height: 629 km
right ascension of ascending node: 215.0573°
argument of perigee: 47.8175°
revolutions per day: 14.84150165
mean anomaly at epoch: 91.3827°
orbit number at epoch: 78250

The dashed part of the orbit path shows where the satellite is in the earth's shadow,  

DLR